TimeHST,TemperatureF,Dew PointF,Humidity,Sea Level PressureIn,VisibilityMPH,Wind Direction,Wind SpeedMPH,Gust SpeedMPH,PrecipitationIn,Events,Conditions,WindDirDegrees,DateUTC
12:02 AM,75.2,71.6,89,30.10,10.0,Calm,Calm,-,N/A,,Overcast,0,2012-10-11 10:02:00
12:11 AM,75.2,71.6,89,30.10,10.0,Calm,Calm,-,N/A,,Overcast,0,2012-10-11 10:11:00
12:45 AM,75.2,71.6,89,30.09,10.0,Calm,Calm,-,N/A,,Scattered Clouds,0,2012-10-11 10:45:00
12:53 AM,73.9,71.1,91,30.11,10.0,Calm,Calm,-,N/A,,Partly Cloudy,0,2012-10-11 10:53:00
1:53 AM,73.0,71.1,93,30.09,10.0,Calm,Calm,-,N/A,,Mostly Cloudy,0,2012-10-11 11:53:00
2:53 AM,73.0,71.1,93,30.08,10.0,Variable,3.5,-,N/A,,Scattered Clouds,0,2012-10-11 12:53:00
3:53 AM,73.0,71.1,93,30.08,10.0,Calm,Calm,-,N/A,,Scattered Clouds,0,2012-10-11 13:53:00
4:53 AM,72.0,70.0,93,30.08,10.0,Variable,3.5,-,N/A,,Clear,0,2012-10-11 14:53:00
5:53 AM,73.0,70.0,90,30.10,10.0,ENE,3.5,-,N/A,,Overcast,60,2012-10-11 15:53:00
6:53 AM,73.9,70.0,87,30.11,10.0,Calm,Calm,-,N/A,,Overcast,0,2012-10-11 16:53:00
7:53 AM,78.1,70.0,76,30.12,10.0,Variable,3.5,-,N/A,,Overcast,0,2012-10-11 17:53:00
8:53 AM,80.1,66.0,62,30.12,10.0,ENE,8.1,-,N/A,,Partly Cloudy,60,2012-10-11 18:53:00
9:53 AM,82.0,66.0,58,30.12,10.0,East,9.2,18.4,N/A,,Clear,100,2012-10-11 19:53:00
10:53 AM,84.9,66.9,55,30.10,10.0,Variable,5.8,-,N/A,,Mostly Cloudy,0,2012-10-11 20:53:00
11:53 AM,84.0,68.0,58,30.07,10.0,Variable,6.9,-,N/A,,Scattered Clouds,0,2012-10-11 21:53:00
12:53 PM,84.9,68.0,57,30.04,10.0,Variable,5.8,-,N/A,,Clear,0,2012-10-11 22:53:00
1:53 PM,84.9,68.0,57,30.02,10.0,ENE,8.1,-,N/A,,Partly Cloudy,70,2012-10-11 23:53:00
2:53 PM,84.9,68.0,57,30.01,10.0,Variable,6.9,-,N/A,,Clear,0,2012-10-12 00:53:00
3:10 PM,84.2,68.0,58,29.99,10.0,Variable,6.9,-,N/A,,Partly Cloudy,0,2012-10-12 01:10:00
3:53 PM,84.0,68.0,58,30.01,10.0,ENE,9.2,-,N/A,,Clear,60,2012-10-12 01:53:00
4:53 PM,82.9,68.0,60,30.03,10.0,Variable,5.8,-,N/A,,Partly Cloudy,0,2012-10-12 02:53:00
5:53 PM,79.0,66.9,66,30.05,10.0,Variable,5.8,-,N/A,,Clear,0,2012-10-12 03:53:00
6:53 PM,75.9,66.9,74,30.07,10.0,Variable,3.5,-,N/A,,Partly Cloudy,0,2012-10-12 04:53:00
7:53 PM,75.0,66.9,76,30.10,10.0,Variable,3.5,-,N/A,,Clear,0,2012-10-12 05:53:00
8:53 PM,73.9,66.9,79,30.12,10.0,ENE,3.5,-,N/A,,Scattered Clouds,70,2012-10-12 06:53:00
9:53 PM,73.9,66.0,76,30.13,10.0,Variable,4.6,-,N/A,,Clear,0,2012-10-12 07:53:00
10:53 PM,73.9,66.0,76,30.12,10.0,ENE,3.5,-,N/A,,Clear,70,2012-10-12 08:53:00
11:53 PM,73.9,66.9,79,30.11,10.0,ENE,4.6,-,N/A,,Clear,70,2012-10-12 09:53:00